Location: Braunsdorf
(50.7357°N, 11.9136°E)
Time: 16:22:35
(UTC+00:00)

ATLAS CENTAUR R/B - Pass Details

Date: 17 February 2020
Orbit: 466 x 681 km, 64.7° (Epoch: 26 March)

Event Time Altitude Azimuth Distance (km) Brightness Sun altitude
Exits shadow 03:43:07 65° 137° (SE) 699 1.8 -25.7°
Maximum altitude 03:43:14 66° 127° (SE) 697 1.8 -25.6°
Drops below altitude 10° 03:47:40 10° 46° (NE) 1,965 4.9 -24.9°
Sets 03:49:52 0° 43° (NE) 2,836 5.8 -24.6°
